| time (UTC) | temp F | wind direction | speed MPH | gust MPH | rain 1hr in | rain 24hr in | rain mn in | humidity % | barometer mb |
| 20260508050046 | 53 | 291 | 0.0 | 2.0 | 0.00 | 0.00 | 0.00 | 49 | 1012.7 |
| 20260508044546 | 53 | 292 | 2.0 | 4.0 | 0.00 | 0.00 | 0.00 | 49 | 1012.8 |
| 20260508043037 | 53 | 292 | 3.0 | 5.0 | 0.00 | 0.00 | 0.00 | 47 | 1012.7 |
| 20260508041537 | 57 | 290 | 2.0 | 9.0 | 0.00 | 0.00 | 0.00 | 42 | 1012.6 |
| 20260508040043 | 58 | 288 | 2.0 | 5.0 | 0.00 | 0.00 | 0.00 | 40 | 1012.7 |
| 20260508034544 | 59 | 288 | 3.0 | 7.0 | 0.00 | 0.00 | 0.00 | 39 | 1012.7 |
| 20260508033050 | 61 | 273 | 6.0 | 10.0 | 0.00 | 0.00 | 0.00 | 38 | 1012.7 |
| 20260508031538 | 62 | 360 | 3.0 | 18.0 | 0.00 | 0.00 | 0.00 | 37 | 1012.8 |
| 20260508030036 | 61 | 340 | 16.0 | 24.0 | 0.00 | 0.00 | 0.00 | 39 | 1012.5 |
| 20260508024537 | 62 | 294 | 14.0 | 20.0 | 0.00 | 0.00 | 0.00 | 38 | 1012.3 |
| 20260508023043 | 62 | 304 | 8.0 | 12.0 | 0.00 | 0.00 | 0.00 | 40 | 1012.0 |
| 20260508021542 | 63 | 290 | 9.0 | 13.0 | 0.00 | 0.00 | 0.00 | 39 | 1011.8 |
| 20260508020046 | 64 | 251 | 6.0 | 10.0 | 0.00 | 0.00 | 0.00 | 40 | 1011.7 |
| 20260508014535 | 64 | 304 | 2.0 | 8.0 | 0.00 | 0.00 | 0.00 | 40 | 1011.4 |
| 20260508013035 | 66 | 259 | 5.0 | 8.0 | 0.00 | 0.00 | 0.00 | 38 | 1011.3 |
| 20260508011541 | 66 | 325 | 3.0 | 9.0 | 0.00 | 0.00 | 0.00 | 28 | 1011.3 |
| 20260508010041 | 66 | 334 | 4.0 | 6.0 | 0.00 | 0.00 | 0.00 | 29 | 1011.1 |
| 20260508004537 | 66 | 315 | 3.0 | 5.0 | 0.00 | 0.00 | 0.00 | 37 | 1011.2 |
| 20260508003044 | 67 | 306 | 7.0 | 10.0 | 0.00 | 0.00 | 0.00 | 36 | 1011.1 |
| 20260508001550 | 68 | 322 | 5.0 | 12.0 | 0.00 | 0.00 | 0.00 | 35 | 1011.0 |
| 20260508000041 | 68 | 290 | 4.0 | 11.0 | 0.00 | 0.00 | 0.00 | 36 | 1011.0 |
| 20260507234538 | 67 | 283 | 8.0 | 14.0 | 0.00 | 0.00 | 0.00 | 39 | 1011.0 |
| 20260507233036 | 67 | 348 | 10.0 | 14.0 | 0.00 | 0.00 | 0.00 | 31 | 1010.9 |
| 20260507231543 | 67 | 26 | 3.0 | 10.0 | 0.00 | 0.00 | 0.00 | 38 | 1011.1 |
| 20260507230037 | 67 | 304 | 6.0 | 16.0 | 0.00 | 0.00 | 0.00 | 31 | 1011.3 |
| 20260507224542 | 68 | 5 | 10.0 | 16.0 | 0.00 | 0.00 | 0.00 | 30 | 1011.3 |
| 20260507223040 | 68 | 347 | 10.0 | 15.0 | 0.00 | 0.00 | 0.00 | 31 | 1011.3 |
| 20260507221543 | 68 | 5 | 11.0 | 18.0 | 0.00 | 0.00 | 0.00 | 32 | 1011.5 |
| 20260507220045 | 68 | 333 | 5.0 | 18.0 | 0.00 | 0.00 | 0.00 | 29 | 1011.5 |
| 20260507214546 | 67 | 344 | 3.0 | 16.0 | 0.00 | 0.00 | 0.00 | 33 | 1011.7 |
| 20260507213050 | 68 | 334 | 7.0 | 21.0 | 0.00 | 0.00 | 0.00 | 31 | 1011.8 |
| 20260507211548 | 68 | 355 | 10.0 | 19.0 | 0.00 | 0.00 | 0.00 | 31 | 1012.0 |
| 20260507210040 | 68 | 12 | 10.0 | 18.0 | 0.00 | 0.00 | 0.00 | 32 | 1011.9 |
| 20260507204536 | 67 | 329 | 2.0 | 11.0 | 0.00 | 0.00 | 0.00 | 31 | 1012.0 |
| 20260507203043 | 66 | 304 | 9.0 | 13.0 | 0.00 | 0.00 | 0.00 | 32 | 1011.8 |
| 20260507201547 | 67 | 355 | 9.0 | 18.0 | 0.00 | 0.00 | 0.00 | 32 | 1012.0 |
| 20260507200043 | 66 | 304 | 10.0 | 16.0 | 0.00 | 0.00 | 0.00 | 34 | 1012.0 |
| 20260507194536 | 67 | 335 | 8.0 | 15.0 | 0.00 | 0.00 | 0.00 | 32 | 1012.0 |
| 20260507193040 | 66 | 36 | 9.0 | 17.0 | 0.00 | 0.00 | 0.00 | 34 | 1012.0 |
| 20260507191537 | 66 | 338 | 8.0 | 16.0 | 0.00 | 0.00 | 0.00 | 33 | 1012.0 |
| 20260507190043 | 65 | 336 | 9.0 | 16.0 | 0.00 | 0.00 | 0.00 | 35 | 1012.1 |
| 20260507184541 | 65 | 332 | 12.0 | 18.0 | 0.00 | 0.00 | 0.00 | 34 | 1012.0 |
| 20260507183101 | 65 | 297 | 7.0 | 14.0 | 0.00 | 0.00 | 0.00 | 35 | 1011.9 |
| 20260507181543 | 65 | 299 | 12.0 | 19.0 | 0.00 | 0.00 | 0.00 | 34 | 1011.9 |
| 20260507180050 | 65 | 318 | 5.0 | 14.0 | 0.00 | 0.00 | 0.00 | 36 | 1012.3 |
| 20260507174542 | 64 | 350 | 8.0 | 15.0 | 0.00 | 0.00 | 0.00 | 36 | 1012.4 |
| 20260507173054 | 64 | 352 | 8.0 | 15.0 | 0.00 | 0.00 | 0.00 | 38 | 1012.4 |
| 20260507171537 | 64 | 338 | 11.0 | 15.0 | 0.00 | 0.00 | 0.00 | 38 | 1012.7 |
| 20260507170047 | 63 | 304 | 10.0 | 15.0 | 0.00 | 0.00 | 0.00 | 40 | 1012.8 |
| 20260507164535 | 63 | 9 | 10.0 | 16.0 | 0.00 | 0.00 | 0.00 | 39 | 1013.0 |
| 20260507163043 | 63 | 9 | 9.0 | 14.0 | 0.00 | 0.00 | 0.00 | 40 | 1012.8 |
| 20260507161550 | 62 | 296 | 7.0 | 12.0 | 0.00 | 0.00 | 0.00 | 41 | 1012.8 |
| 20260507160036 | 61 | 0 | 2.0 | 7.0 | 0.00 | 0.00 | 0.00 | 43 | 1012.9 |
| 20260507154535 | 59 | 286 | 1.0 | 6.0 | 0.00 | 0.00 | 0.00 | 46 | 1012.8 |
| 20260507153045 | 57 | 278 | 3.0 | 8.0 | 0.00 | 0.00 | 0.00 | 46 | 1012.8 |
| 20260507151542 | 54 | 263 | 3.0 | 8.0 | 0.00 | 0.00 | 0.00 | 49 | 1012.7 |
| 20260507150039 | 52 | 284 | 3.0 | 7.0 | 0.00 | 0.00 | 0.00 | 52 | 1012.5 |
| 20260507144539 | 51 | 119 | 3.0 | 4.0 | 0.00 | 0.00 | 0.00 | 55 | 1012.3 |
| 20260507143056 | 50 | 94 | 3.0 | 4.0 | 0.00 | 0.00 | 0.00 | 57 | 1012.3 |
| 20260507141542 | 49 | 90 | 2.0 | 4.0 | 0.00 | 0.00 | 0.00 | 61 | 1012.2 |
| 20260507140039 | 48 | 0 | 0.0 | 3.0 | 0.00 | 0.00 | 0.00 | 58 | 1012.3 |
| 20260507134537 | 47 | 49 | 2.0 | 4.0 | 0.00 | 0.00 | 0.00 | 58 | 1012.2 |
| 20260507133047 | 46 | 46 | 2.0 | 3.0 | 0.00 | 0.00 | 0.00 | 59 | 1012.1 |
| 20260507131545 | 45 | 46 | 1.0 | 5.0 | 0.00 | 0.00 | 0.00 | 59 | 1012.0 |
| 20260507130058 | 46 | 34 | 5.0 | 9.0 | 0.00 | 0.00 | 0.00 | 57 | 1012.1 |
| 20260507124541 | 46 | 0 | 0.0 | 0.0 | 0.00 | 0.00 | 0.00 | 57 | 1011.8 |
| 20260507123035 | 47 | 0 | 0.0 | 3.0 | 0.00 | 0.00 | 0.00 | 55 | 1011.4 |
| 20260507121535 | 47 | 13 | 2.0 | 5.0 | 0.00 | 0.00 | 0.00 | 56 | 1011.7 |
| 20260507120042 | 47 | 319 | 3.0 | 5.0 | 0.00 | 0.00 | 0.00 | 54 | 1011.6 |
| 20260507114540 | 47 | 236 | 0.0 | 3.0 | 0.00 | 0.00 | 0.00 | 53 | 1011.3 |
| 20260507113039 | 46 | 0 | 0.0 | 3.0 | 0.00 | 0.00 | 0.00 | 52 | 1011.4 |
| 20260507111536 | 47 | 0 | 1.0 | 5.0 | 0.00 | 0.00 | 0.00 | 51 | 1011.4 |
| 20260507110055 | 47 | 246 | 3.0 | 7.0 | 0.00 | 0.00 | 0.00 | 51 | 1011.3 |
| 20260507104549 | 46 | 239 | 5.0 | 7.0 | 0.00 | 0.00 | 0.00 | 52 | 1011.1 |
| 20260507103106 | 45 | 219 | 2.0 | 5.0 | 0.00 | 0.00 | 0.00 | 51 | 1010.9 |
| 20260507101540 | 46 | 219 | 3.0 | 7.0 | 0.00 | 0.00 | 0.00 | 51 | 1010.8 |
| 20260507100048 | 46 | 223 | 4.0 | 8.0 | 0.00 | 0.00 | 0.00 | 52 | 1010.8 |
| 20260507094538 | 46 | 237 | 5.0 | 7.0 | 0.00 | 0.00 | 0.00 | 52 | 1010.6 |
| 20260507093043 | 47 | 175 | 3.0 | 5.0 | 0.00 | 0.00 | 0.00 | 49 | 1010.4 |
| 20260507091544 | 47 | 173 | 1.0 | 3.0 | 0.00 | 0.00 | 0.00 | 48 | 1010.4 |
| 20260507090039 | 47 | 0 | 0.0 | 5.0 | 0.00 | 0.00 | 0.00 | 48 | 1010.0 |
| 20260507084545 | 48 | 0 | 0.0 | 3.0 | 0.00 | 0.00 | 0.00 | 47 | 1010.0 |
| 20260507083035 | 48 | 172 | 1.0 | 6.0 | 0.00 | 0.00 | 0.00 | 47 | 1009.8 |
| 20260507081536 | 49 | 171 | 5.0 | 8.0 | 0.00 | 0.00 | 0.00 | 49 | 1009.6 |
| 20260507080047 | 50 | 163 | 5.0 | 7.0 | 0.00 | 0.00 | 0.00 | 52 | 1009.3 |
| 20260507074538 | 51 | 103 | 1.0 | 7.0 | 0.00 | 0.00 | 0.00 | 51 | 1009.4 |
| 20260507073042 | 52 | 99 | 1.0 | 7.0 | 0.00 | 0.00 | 0.00 | 50 | 1009.4 |
| 20260507071535 | 53 | 69 | 4.0 | 13.0 | 0.00 | 0.00 | 0.00 | 50 | 1009.4 |
| 20260507070051 | 53 | 49 | 4.0 | 13.0 | 0.00 | 0.00 | 0.00 | 48 | 1009.0 |
| 20260507064549 | 51 | 117 | 4.0 | 10.0 | 0.00 | 0.00 | 0.00 | 50 | 1008.6 |
| 20260507063037 | 51 | 112 | 3.0 | 8.0 | 0.00 | 0.00 | 0.00 | 47 | 1008.3 |
| 20260507061537 | 53 | 360 | 5.0 | 10.0 | 0.00 | 0.00 | 0.00 | 45 | 1007.9 |
| 20260507060037 | 55 | 340 | 7.0 | 13.0 | 0.00 | 0.00 | 0.00 | 45 | 1007.6 |
| 20260507054547 | 58 | 329 | 12.0 | 20.0 | 0.00 | 0.00 | 0.00 | 43 | 1007.5 |
| 20260507053046 | 60 | 339 | 12.0 | 22.0 | 0.00 | 0.00 | 0.00 | 43 | 1007.7 |
| 20260507051543 | 60 | 348 | 6.0 | 16.0 | 0.00 | 0.00 | 0.00 | 43 | 1007.3 |